[[{"header":{"parameterUnit":"m.s-1","parameterCategory":2,"la1":30.2991,"la2":30.254,"lo1":-89.0895,"lo2":-89.0444,"dy":0.0017,"dx":0.0017,"nx":28,"ny":28,"refTime":"2023-08-04T09:00:00:Z","depth":"0","parameterNumber":2,"parameterNumberName":"U-component_of_CURRENTS"},"data":[0,0,0,0,0,0,0,0,0,0,0,0,0,0,0,0,0,0,0,0,0,0,0,0,0,0,0,0,0,0,0,0,0,0,0,0,0,0,0,0,0,0,0,0,0,0,0,0,0,0,0,0,0,0,0,0,0,0,0.2665,0.2666,0,0.266,0.2659,0.2659,0.2553,0.2551,0.2548,0.2546,0.2532,0.2534,0.2536,0,0,0,0,0,0,0,0,0,0,0,0,0,0.2676,0.2676,0.2665,0.2666,0.2666,0.266,0.2659,0.2659,0.2553,0.2551,0.2548,0.2545,0.2532,0.2534,0.2536,0,0,0,0,0,0,0,0,0,0,0,0,0,0.2667,0.2675,0.2665,0.2615,0.2611,0.266,0.2659,0.2659,0.2554,0.255,0.2547,0.2544,0.2531,0.2534,0.2537,0.2625,0,0,0.2545,0.2546,0,0,0,0,0,0,0,0,0.2668,0.2667,0.2622,0.2619,0.2614,0.2606,0.2658,0.2648,0.2555,0.2572,0.2546,0.2542,0.2562,0.2562,0.2563,0.2625,0.2624,0.2545,0.2547,0.2548,0.2549,0,0,0,0,0,0,0,0.2669,0.2667,0.2659,0.2623,0.2618,0.2625,0.2618,0.2656,0.2584,0.257,0.2563,0.257,0.2558,0.2561,0.2562,0.2624,0.2545,0.2548,0.2549,0.2551,0.2892,0.2899,0,0,0,0,0,0,0.2676,0.2667,0.266,0.266,0.2637,0.2627,0.262,0.261,0.2583,0.2577,0.2573,0.2565,0.2558,0.2559,0.2562,0.2743,0.2548,0.2551,0.2552,0.2885,0.2894,0.2902,0,0,0,0,0,0,0.2676,0.2675,0.266,0.2667,0.2666,0.263,0.262,0.2612,0.2622,0.2586,0.2578,0.2593,0.2555,0.2558,0.2649,0.2738,0.2552,0.2555,0.2876,0.2888,0.2898,0.3057,0,0,0,0,0,0,0.2676,0.2674,0.2685,0.2667,0.2666,0.2733,0.2624,0.2614,0.2633,0.2622,0.2602,0.2595,0.2553,0.2646,0.2652,0.2739,0.2557,0.2867,0.2881,0.2894,0.3042,0.3072,0.3097,0,0,0,0,0,0.2676,0.2715,0.2685,0.2685,0.2675,0.2738,0.2741,0.2699,0.2638,0.2686,0.2677,0.2596,0.2738,0.2654,0.2659,0.2749,0.286,0.2877,0.2893,0.303,0.3066,0.3097,0,0,0,0,0,0,0.2742,0.2708,0.2674,0.2702,0.2735,0.2722,0.276,0.2728,0.2756,0.2743,0.2682,0.2681,0.2791,0.2781,0.2689,0.2902,0.2792,0.281,0.2894,0.2928,0.2955,0.2961,0.2559,0,0,0,0,0,0.276,0.2771,0.276,0.2798,0.2809,0.2788,0.2808,0.2791,0.2806,0.281,0.2798,0.2818,0.2871,0.2902,0.2939,0.306,0.3051,0.3134,0.3162,0.3184,0.3204,0.3316,0.3353,0.2957,0.2956,0.2956,0,0,0.2806,0.2785,0.2798,0.2814,0.2819,0.2902,0.2791,0.285,0.2926,0.2813,0.2916,0.2907,0.2926,0.3049,0.3101,0.3046,0.3293,0.3206,0.3224,0.3231,0.3337,0.3374,0.3408,0.2968,0.2966,0.2964,0,0,0.2934,0.2879,0.2945,0.2983,0.3014,0.3004,0.3032,0.3046,0.305,0.3159,0.3098,0.3161,0.3235,0.3268,0.3293,0.3517,0.3429,0.3531,0.3675,0.3784,0.3816,0.3843,0.3855,0.3882,0.3552,0.3552,0.3553,0,0.3002,0.3049,0.2992,0.3085,0.3124,0.3063,0.3174,0.3203,0.3253,0.3272,0.3225,0.3342,0.3349,0.349,0.3566,0.3574,0.3583,0.3525,0.3813,0.3841,0.3866,0.3871,0.39,0.3562,0.3561,0.356,0.3559,0,0.318,0.3232,0.3286,0.3354,0.3405,0.3489,0.3509,0.3557,0.3533,0.354,0.3647,0.3662,0.3716,0.3753,0.3725,0.3919,0.3847,0.3818,0.3705,0.3914,0.3908,0.3934,0.3576,0.3572,0.3569,0.3567,0,0,0.3291,0.3386,0.3409,0.3455,0.3537,0.3584,0.3719,0.379,0.3812,0.389,0.3944,0.4078,0.4017,0.4049,0.4021,0.4127,0.4305,0.4061,0.4062,0.4029,0.4485,0.4217,0.4217,0.4319,0.4325,0.433,0.4395,0,0.3447,0.3624,0.3642,0.3816,0.3892,0.3884,0.3982,0.4041,0.404,0.4078,0.4117,0.4155,0.4152,0.4138,0.4272,0.4256,0.4388,0.4286,0.4326,0.4326,0.4027,0.4246,0.3929,0.3942,0.4419,0.4424,0.4427,0,0.3612,0.3687,0.3871,0.3954,0.3983,0.4072,0.4118,0.4204,0.4252,0.4247,0.4316,0.4286,0.4424,0.4379,0.4562,0.4488,0.4541,0.4552,0.4554,0.4266,0.4109,0.3824,0.397,0.3831,0.4466,0.4462,0.446,0,0.3661,0.3837,0.3953,0.4004,0.4111,0.4159,0.4193,0.4242,0.4257,0.4322,0.4306,0.4451,0.4462,0.4609,0.4632,0.4614,0.4787,0.4753,0.4584,0.456,0.4279,0.4219,0.4256,0.4973,0.4973,0.4973,0.4972,0,0.3785,0.3876,0.3962,0.4031,0.4103,0.4172,0.4216,0.4259,0.4286,0.4294,0.4367,0.4385,0.4531,0.4606,0.4681,0.4674,0.4847,0.4644,0.4594,0.4321,0.4267,0.4116,0.4114,0.4975,0.4974,0.4974,0.4973,0,0.3819,0.3901,0.4011,0.4112,0.413,0.4164,0.419,0.4203,0.4236,0.4247,0.4266,0.4354,0.4432,0.4531,0.4698,0.4662,0.4546,0.4698,0.4303,0.4206,0.3831,0.385,0.3712,0.3645,0.4498,0.4493,0.4488,0,0.3851,0.3918,0.4023,0.4048,0.4083,0.4121,0.4131,0.4172,0.4171,0.4213,0.4217,0.4283,0.4294,0.4367,0.4335,0.437,0.437,0.4086,0.4022,0.3795,0.3785,0.3679,0.3631,0.3716,0.3705,0.3696,0.3689,0,0.389,0.3918,0.3993,0.4034,0.4055,0.4056,0.4072,0.4055,0.4093,0.4086,0.4076,0.4076,0.4063,0.39,0.3884,0.3886,0.3791,0.3898,0.3824,0.3316,0.3054,0.2963,0.3637,0.3611,0.3619,0.3624,0.3629,0.3632,0.3888,0.3917,0.3999,0.4004,0.402,0.3977,0.3911,0.3913,0.3876,0.3765,0.3897,0.3732,0.3555,0.344,0.3415,0.3059,0.3263,0.292,0.3002,0.2945,0.2757,0.3193,0.3001,0.3005,0.3009,0.3012,0.3015,0,0.3887,0.3921,0.3953,0.3955,0.3895,0.3918,0.3854,0.3721,0.3603,0.3505,0.3436,0.3101,0.285,0.2696,0.235,0.2189,0.215,0.2133,0.1983,0.2027,0.2533,0.237,0.1835,0.1835,0.1835,0.1836,0.1836,0.1836,0.3906,0.3932,0.3925,0.3823,0.3781,0.3623,0.3533,0.3345,0.3199,0.2824,0.253,0.2453,0.2251,0.1917,0.1611,0.1578,0.1551,0.1344,0.1565,0.1953,0.2034,0.2112,0.1958,0.1345,0.1345,0.0862,0.0858,0.0855]},{"header":{"parameterUnit":"m.s-1","parameterCategory":2,"la1":30.2991,"la2":30.254,"lo1":-89.0895,"lo2":-89.0444,"dy":0.0017,"dx":0.0017,"nx":28,"ny":28,"refTime":"2023-08-04T09:00:00:Z","depth":"0","parameterNumber":3,"parameterNumberName":"V-component_of_CURRENTS"},"data":[0,0,0,0,0,0,0,0,0,0,0,0,0,0,0,0,0,0,0,0,0,0,0,0,0,0,0,0,0,0,0,0,0,0,0,0,0,0,0,0,0,0,0,0,0,0,0,0,0,0,0,0,0,0,0,0,0,0,0.042,0.042,0,0.0401,0.0401,0.0401,0.0353,0.0352,0.0351,0.035,0.0359,0.036,0.0361,0,0,0,0,0,0,0,0,0,0,0,0,0,0.0398,0.0399,0.042,0.042,0.042,0.0401,0.0401,0.0401,0.0353,0.0352,0.035,0.0349,0.0359,0.036,0.0361,0,0,0,0,0,0,0,0,0,0,0,0,0,0.0396,0.0399,0.042,0.0394,0.0391,0.0401,0.0401,0.0401,0.0353,0.0352,0.035,0.0349,0.0358,0.036,0.0362,0.0403,0,0,0.0367,0.0368,0,0,0,0,0,0,0,0,0.0396,0.0397,0.0398,0.0395,0.0393,0.0378,0.0396,0.0403,0.0353,0.0368,0.035,0.0348,0.0369,0.037,0.0369,0.0404,0.0404,0.0367,0.0368,0.0369,0.037,0,0,0,0,0,0,0,0.0396,0.0397,0.0413,0.0398,0.0395,0.0377,0.0375,0.0397,0.0378,0.0366,0.0363,0.0361,0.0368,0.0368,0.0369,0.0404,0.0367,0.0369,0.037,0.0371,0.0509,0.0511,0,0,0,0,0,0,0.0402,0.0398,0.0413,0.0412,0.0391,0.0378,0.0376,0.0384,0.0377,0.0374,0.0362,0.0359,0.0365,0.0367,0.0369,0.0413,0.0369,0.0371,0.0372,0.0506,0.0509,0.0512,0,0,0,0,0,0,0.0401,0.0404,0.0414,0.0404,0.0404,0.038,0.0389,0.0384,0.0382,0.0373,0.0371,0.0365,0.0364,0.0367,0.04,0.0413,0.0372,0.0373,0.0503,0.0507,0.0511,0.0503,0,0,0,0,0,0,0.0401,0.0404,0.0413,0.0405,0.0404,0.0423,0.0391,0.0385,0.0384,0.0379,0.0375,0.0374,0.0363,0.0397,0.0402,0.0414,0.0375,0.05,0.0505,0.0509,0.05,0.0506,0.0512,0,0,0,0,0,0.0401,0.0414,0.0413,0.0415,0.0417,0.0424,0.0423,0.04,0.0385,0.0392,0.0395,0.0374,0.0431,0.0401,0.0405,0.0419,0.0497,0.0503,0.0509,0.0498,0.0505,0.0512,0,0,0,0,0,0,0.04,0.0411,0.0409,0.0423,0.0427,0.0416,0.0419,0.0409,0.0417,0.0412,0.0402,0.0403,0.0439,0.0447,0.0414,0.0481,0.0464,0.0471,0.0454,0.0461,0.0467,0.047,0.0376,0,0,0,0,0,0.0409,0.0424,0.043,0.0439,0.0446,0.0438,0.0438,0.0426,0.043,0.0429,0.0432,0.0447,0.0471,0.0477,0.0502,0.0536,0.0558,0.0555,0.0561,0.0565,0.0577,0.0662,0.0675,0.0531,0.0531,0.0531,0,0,0.0408,0.0417,0.0423,0.044,0.0441,0.0447,0.0434,0.0438,0.0439,0.0434,0.0447,0.0469,0.0489,0.0522,0.0539,0.0524,0.061,0.0572,0.0575,0.0585,0.0669,0.0683,0.0695,0.0535,0.0534,0.0534,0,0,0.0406,0.0429,0.0437,0.0448,0.0456,0.0457,0.0463,0.0467,0.0467,0.0489,0.0492,0.0532,0.0553,0.0576,0.0587,0.0651,0.0643,0.0657,0.0675,0.0757,0.0769,0.0779,0.0779,0.0791,0.0652,0.0652,0.0652,0,0.0403,0.0422,0.0439,0.0448,0.0461,0.0464,0.0475,0.0477,0.0489,0.0513,0.0493,0.0574,0.058,0.0639,0.0648,0.066,0.0681,0.0633,0.0761,0.0773,0.0784,0.0782,0.0794,0.0652,0.0652,0.0652,0.0652,0,0.0404,0.0423,0.0432,0.0449,0.0464,0.0481,0.0491,0.0512,0.0518,0.0528,0.0594,0.062,0.0673,0.0678,0.0668,0.0757,0.0735,0.0759,0.0731,0.0797,0.0791,0.0804,0.0653,0.0653,0.0652,0.0652,0,0,0.039,0.0428,0.0429,0.0452,0.0476,0.0491,0.0511,0.0549,0.0584,0.0599,0.0666,0.0693,0.0725,0.0746,0.0761,0.0813,0.0878,0.081,0.0814,0.0787,0.1006,0.0938,0.0945,0.0926,0.093,0.0933,0.0951,0,0.039,0.0417,0.0434,0.0464,0.0492,0.0518,0.0543,0.0576,0.0611,0.0678,0.0719,0.0784,0.0744,0.0787,0.0832,0.0901,0.0921,0.0868,0.0968,0.0969,0.0884,0.0962,0.0949,0.0962,0.0963,0.0966,0.0967,0,0.0394,0.0415,0.0449,0.0508,0.0523,0.0535,0.0615,0.0637,0.072,0.0756,0.0824,0.0867,0.0949,0.0916,0.1019,0.0989,0.0989,0.1012,0.1014,0.0969,0.0929,0.0911,0.0986,0.0938,0.0987,0.0985,0.0984,0,0.0406,0.0437,0.0473,0.0489,0.054,0.0568,0.0597,0.0666,0.0723,0.0824,0.09,0.0977,0.1064,0.1094,0.1111,0.1087,0.1215,0.1196,0.1114,0.1105,0.1125,0.1113,0.1153,0.1256,0.1256,0.1256,0.1256,0,0.0432,0.0464,0.0479,0.0504,0.0554,0.0582,0.0659,0.07,0.0801,0.0912,0.095,0.1071,0.1126,0.1197,0.1166,0.118,0.1258,0.1132,0.1132,0.1115,0.1103,0.1086,0.1069,0.1257,0.1256,0.1256,0.1256,0,0.0471,0.048,0.0519,0.0552,0.0568,0.0603,0.0692,0.0768,0.0841,0.0999,0.1046,0.1185,0.1283,0.1276,0.1351,0.1272,0.1253,0.124,0.1167,0.1158,0.1015,0.0998,0.1059,0.1073,0.1164,0.1162,0.1161,0,0.0511,0.0526,0.0546,0.0577,0.0597,0.0652,0.0717,0.0784,0.0886,0.1082,0.1188,0.1315,0.144,0.1467,0.1371,0.1289,0.1248,0.1173,0.1128,0.1019,0.1002,0.0994,0.1002,0.1129,0.1128,0.1127,0.1126,0,0.0569,0.0557,0.0581,0.0634,0.0687,0.0765,0.0863,0.0943,0.1071,0.1215,0.1431,0.1539,0.1559,0.1521,0.1364,0.1287,0.1155,0.1147,0.1109,0.104,0.0972,0.098,0.1039,0.1118,0.1118,0.1119,0.112,0.112,0.0604,0.0618,0.0636,0.0693,0.0775,0.0898,0.0974,0.1114,0.1284,0.1513,0.1596,0.1754,0.1629,0.1448,0.1327,0.1062,0.1112,0.0978,0.0977,0.0986,0.098,0.0964,0.1,0.1,0.1,0.1,0.1,0,0.0631,0.0651,0.071,0.0787,0.0905,0.0933,0.1098,0.12,0.1415,0.1614,0.1788,0.1778,0.1628,0.141,0.107,0.0923,0.0903,0.085,0.0866,0.0894,0.0948,0.0924,0.0858,0.0858,0.0858,0.0858,0.0858,0.0858,0.0647,0.0682,0.0706,0.0882,0.097,0.1116,0.121,0.1373,0.1521,0.1728,0.1793,0.1845,0.1668,0.1185,0.0885,0.0823,0.0797,0.0746,0.0766,0.0797,0.081,0.0822,0.0795,0.0703,0.0703,0.073,0.073,0.073]}],[{"header":{"parameterUnit":"m.s-1","parameterCategory":2,"la1":30.2991,"la2":30.254,"lo1":-89.0895,"lo2":-89.0444,"dy":0.0017,"dx":0.0017,"nx":28,"ny":28,"refTime":"2023-08-04T09:00:00:Z","depth":"2","parameterNumber":2,"parameterNumberName":"U-component_of_CURRENTS"},"data":[0,0,0,0,0,0,0,0,0,0,0,0,0,0,0,0,0,0,0,0,0,0,0,0,0,0,0,0,0,0,0,0,0,0,0,0,0,0,0,0,0,0,0,0,0,0,0,0,0,0,0,0,0,0,0,0,0,0,0.198,0.198,0,0.1923,0.1922,0.1921,0.1858,0.1857,0.1857,0.1857,0.1919,0.1921,0.1923,0,0,0,0,0,0,0,0,0,0,0,0,0,0.1981,0.1981,0.1981,0.198,0.198,0.1924,0.1922,0.1921,0.1858,0.1857,0.1857,0.1857,0.1919,0.1921,0.1923,0,0,0,0,0,0,0,0,0,0,0,0,0,0.1951,0.1981,0.1981,0.1947,0.1944,0.1924,0.1922,0.192,0.1858,0.1857,0.1857,0.1857,0.1918,0.1921,0.1924,0.195,0,0,0.1932,0.1934,0,0,0,0,0,0,0,0,0.1953,0.1951,0.1952,0.195,0.1946,0.1903,0.1945,0.1939,0.1858,0.1883,0.1857,0.1856,0.193,0.1932,0.191,0.1953,0.1956,0.1933,0.1934,0.1936,0.1936,0,0,0,0,0,0,0,0.1955,0.1952,0.1951,0.1952,0.1949,0.1917,0.1912,0.1942,0.1907,0.1881,0.1878,0.1883,0.1928,0.1907,0.1912,0.1956,0.1933,0.1935,0.1937,0.1938,0.2128,0.2131,0,0,0,0,0,0,0.198,0.1955,0.1953,0.195,0.1957,0.1918,0.1912,0.1912,0.1903,0.1903,0.1883,0.188,0.1903,0.1909,0.1914,0.2013,0.1936,0.1938,0.194,0.2125,0.2129,0.2133,0,0,0,0,0,0,0.198,0.198,0.1955,0.1957,0.1952,0.192,0.1919,0.1911,0.1917,0.1905,0.1905,0.1901,0.1903,0.191,0.1973,0.2013,0.194,0.1942,0.2121,0.2126,0.2131,0.2168,0,0,0,0,0,0,0.198,0.198,0.1991,0.1958,0.1953,0.199,0.192,0.1911,0.1922,0.1918,0.1921,0.1924,0.1903,0.1969,0.1976,0.2015,0.1945,0.2117,0.2123,0.2129,0.2163,0.2174,0.2184,0,0,0,0,0,0.198,0.1991,0.1992,0.1992,0.1969,0.1993,0.1989,0.1958,0.1924,0.1954,0.1945,0.1925,0.2013,0.1974,0.1981,0.2022,0.2114,0.2121,0.2129,0.2158,0.2172,0.2183,0,0,0,0,0,0,0.2003,0.1986,0.1985,0.1994,0.2021,0.1986,0.1983,0.1982,0.1991,0.197,0.1962,0.1967,0.2029,0.2041,0.1997,0.2102,0.2064,0.2073,0.2084,0.2097,0.2107,0.2166,0.1947,0,0,0,0,0,0.2017,0.202,0.2024,0.2043,0.2038,0.2021,0.2024,0.2014,0.2015,0.2014,0.2031,0.2044,0.2062,0.2092,0.2109,0.2178,0.2237,0.2216,0.2226,0.2235,0.2293,0.2432,0.246,0.2157,0.2157,0.2157,0,0,0.2031,0.2027,0.2028,0.2049,0.2033,0.2033,0.2019,0.2028,0.2048,0.2025,0.2062,0.2077,0.2087,0.214,0.2174,0.2161,0.2344,0.2244,0.225,0.2306,0.2443,0.2472,0.2499,0.2162,0.2161,0.216,0,0,0.2039,0.2052,0.2039,0.2057,0.2064,0.2061,0.2081,0.2082,0.21,0.2152,0.2127,0.2195,0.2227,0.2255,0.2263,0.2362,0.2383,0.236,0.247,0.2602,0.2629,0.2653,0.2723,0.2753,0.2377,0.2377,0.2377,0,0.2046,0.2054,0.2053,0.2044,0.2064,0.2078,0.2087,0.2101,0.2144,0.2188,0.2178,0.2265,0.2284,0.2355,0.2398,0.2385,0.2451,0.2404,0.2616,0.2641,0.2665,0.2732,0.2765,0.238,0.238,0.2379,0.2379,0,0.2034,0.2053,0.2049,0.2041,0.2067,0.2093,0.2114,0.2167,0.2198,0.223,0.2336,0.2375,0.2447,0.2458,0.2463,0.2634,0.2619,0.2595,0.2577,0.2698,0.276,0.2794,0.2384,0.2383,0.2382,0.2381,0,0,0.204,0.2035,0.2049,0.206,0.208,0.2105,0.2147,0.2224,0.227,0.2348,0.2443,0.2525,0.2581,0.2606,0.2627,0.277,0.2981,0.2786,0.2792,0.2845,0.3257,0.2943,0.2949,0.3001,0.3008,0.3014,0.3215,0,0.2046,0.2048,0.2054,0.2093,0.2098,0.214,0.2188,0.2257,0.2326,0.2425,0.2515,0.2604,0.2617,0.268,0.2821,0.2941,0.3082,0.2929,0.3146,0.3153,0.285,0.2982,0.2687,0.2816,0.3248,0.3253,0.3257,0,0.2053,0.2062,0.2091,0.2139,0.2145,0.2185,0.2295,0.2338,0.2457,0.2516,0.2631,0.2689,0.2893,0.289,0.3189,0.3094,0.3219,0.3307,0.3315,0.3049,0.2903,0.2779,0.2861,0.3314,0.3309,0.3305,0.3301,0,0.2093,0.2111,0.2153,0.2166,0.2199,0.2261,0.2306,0.2398,0.2451,0.261,0.2682,0.286,0.2995,0.3184,0.3359,0.3319,0.3672,0.3606,0.3433,0.3409,0.3216,0.316,0.3867,0.3867,0.3866,0.3866,0.3865,0,0.2124,0.2164,0.2187,0.2214,0.2273,0.2304,0.2395,0.2453,0.2559,0.2641,0.2758,0.2868,0.3105,0.3288,0.3423,0.3512,0.372,0.3498,0.3465,0.3207,0.3152,0.3632,0.3603,0.3873,0.3871,0.387,0.3869,0,0.2158,0.2179,0.221,0.2265,0.229,0.234,0.2418,0.2472,0.2589,0.2709,0.2779,0.2963,0.3171,0.3329,0.3635,0.3565,0.3694,0.3683,0.3318,0.3233,0.3326,0.3297,0.3496,0.3487,0.348,0.3474,0.3468,0,0.2167,0.2189,0.2232,0.2246,0.2282,0.2353,0.2391,0.2486,0.2549,0.2754,0.282,0.3042,0.312,0.3335,0.3323,0.3402,0.3601,0.3132,0.2973,0.3354,0.3303,0.3285,0.3266,0.2753,0.2742,0.2733,0.2726,0,0.2159,0.2185,0.2195,0.2224,0.2272,0.2315,0.2405,0.2443,0.2578,0.2677,0.2827,0.2901,0.3006,0.2889,0.2899,0.2915,0.306,0.2938,0.3554,0.2814,0.2647,0.2596,0.2606,0.2648,0.2656,0.2662,0.2666,0.2669,0.2138,0.2133,0.2145,0.2175,0.2229,0.2293,0.2309,0.2373,0.2446,0.2523,0.268,0.2647,0.2611,0.2404,0.2367,0.2327,0.2537,0.2429,0.2462,0.2503,0.2304,0.2124,0.1991,0.1994,0.1998,0.2001,0.2003,0,0.209,0.2097,0.2092,0.2124,0.2163,0.2263,0.2312,0.2258,0.2283,0.2308,0.2344,0.2036,0.1887,0.1926,0.17,0.1619,0.1684,0.1575,0.1674,0.1748,0.1815,0.1587,0.1082,0.108,0.1078,0.1076,0,0,0.206,0.2034,0.2026,0.2053,0.2134,0.2176,0.2213,0.2082,0.2008,0.1848,0.1765,0.179,0.1801,0.141,0.1331,0.1193,0.1483,0.1133,0.1863,0.2054,0.212,0.2281,0.2005,0,0,0,0,0]},{"header":{"parameterUnit":"m.s-1","parameterCategory":2,"la1":30.2991,"la2":30.254,"lo1":-89.0895,"lo2":-89.0444,"dy":0.0017,"dx":0.0017,"nx":28,"ny":28,"refTime":"2023-08-04T09:00:00:Z","depth":"2","parameterNumber":3,"parameterNumberName":"V-component_of_CURRENTS"},"data":[0,0,0,0,0,0,0,0,0,0,0,0,0,0,0,0,0,0,0,0,0,0,0,0,0,0,0,0,0,0,0,0,0,0,0,0,0,0,0,0,0,0,0,0,0,0,0,0,0,0,0,0,0,0,0,0,0,0,0.0041,0.0041,0,-0.0009,-0.0009,-0.001,-0.0018,-0.0018,-0.0017,-0.0017,-0.0005,-0.0006,-0.0006,0,0,0,0,0,0,0,0,0,0,0,0,0,0.0057,0.0057,0.0041,0.0041,0.004,-0.0009,-0.0009,-0.001,-0.0018,-0.0018,-0.0017,-0.0016,-0.0005,-0.0006,-0.0006,0,0,0,0,0,0,0,0,0,0,0,0,0,0.0033,0.0057,0.0041,0.0031,0.0029,-0.0008,-0.0009,-0.001,-0.0018,-0.0018,-0.0017,-0.0016,-0.0005,-0.0006,-0.0006,-0.0022,0,0,-0.0007,-0.0007,0,0,0,0,0,0,0,0,0.0034,0.0032,0.0033,0.0031,0.003,-0.0006,0.0,-0.0011,-0.0019,-0.0001,-0.0017,-0.0016,0.0,-0.0001,-0.0014,-0.0022,-0.0021,-0.0007,-0.0007,-0.0007,-0.0007,0,0,0,0,0,0,0,0.0036,0.0034,0.0021,0.0032,0.003,0.0004,0.0002,-0.0003,-0.0004,-0.0003,-0.0003,-0.0008,-0.0,-0.0013,-0.0013,-0.0021,-0.0007,-0.0007,-0.0007,-0.0007,-0.0019,-0.002,0,0,0,0,0,0,0.0046,0.0036,0.0022,0.0019,0.0035,0.0003,0.0001,0.0004,-0.0005,-0.0006,-0.0008,-0.0008,-0.0013,-0.0013,-0.0013,-0.0029,-0.0007,-0.0007,-0.0007,-0.0019,-0.0019,-0.002,0,0,0,0,0,0,0.0047,0.0046,0.0024,0.0026,0.0022,0.0003,0.0006,0.0003,-0.0005,-0.001,-0.0009,-0.0011,-0.0013,-0.0012,-0.0018,-0.0028,-0.0007,-0.0007,-0.0019,-0.0019,-0.002,-0.0063,0,0,0,0,0,0,0.0048,0.0047,0.005,0.0027,0.0022,0.0004,0.0005,0.0001,-0.0009,-0.0008,-0.0012,-0.0011,-0.0012,-0.0018,-0.0018,-0.0028,-0.0008,-0.0019,-0.0019,-0.0019,-0.0061,-0.0064,-0.0067,0,0,0,0,0,0.0049,0.0051,0.0051,0.0049,0.0029,0.0003,-0.0002,-0.0014,-0.0009,-0.0017,-0.002,-0.0011,-0.0019,-0.0018,-0.0019,-0.0029,-0.0019,-0.0019,-0.0019,-0.006,-0.0064,-0.0067,0,0,0,0,0,0,0.0052,0.005,0.0049,0.0049,0.0029,0.0002,-0.0009,-0.0013,-0.0024,-0.0023,-0.002,-0.0019,-0.0031,-0.0019,-0.0018,-0.0031,-0.0015,-0.0015,-0.0045,-0.0049,-0.0052,-0.0019,-0.0008,0,0,0,0,0,0.0057,0.0064,0.0046,0.0044,0.0034,0.0014,0.0002,-0.0007,-0.002,-0.0024,-0.0023,-0.0023,-0.0035,-0.0032,-0.004,-0.0046,0.0004,-0.0049,-0.0052,-0.0055,-0.0027,0.0041,0.0047,-0.0021,-0.0021,-0.0021,0,0,0.0052,0.0056,0.0056,0.0046,0.0029,0.0006,0.0009,-0.0012,-0.0026,-0.0021,-0.0032,-0.0039,-0.0041,-0.0056,-0.0058,-0.0045,-0.0015,-0.0056,-0.0058,-0.0028,0.0041,0.0048,0.0055,-0.0021,-0.0021,-0.0021,0,0,0.004,0.0053,0.0045,0.0034,0.0015,0.0001,-0.0002,-0.0026,-0.0029,-0.0047,-0.0049,-0.005,-0.0065,-0.0065,-0.0069,-0.0087,-0.004,-0.0096,-0.0079,-0.0015,-0.0008,-0.0001,0.005,0.0062,-0.009,-0.009,-0.009,0,0.0028,0.0035,0.0034,0.0021,0.0022,0.0,-0.0012,-0.0034,-0.0053,-0.0042,-0.0051,-0.0057,-0.0066,-0.007,-0.0082,-0.0093,-0.0047,-0.0071,-0.0017,-0.0009,-0.0001,0.005,0.0063,-0.0092,-0.0092,-0.0092,-0.0091,0,0.0006,0.0013,0.0006,-0.0007,-0.0014,-0.0025,-0.0046,-0.0053,-0.0055,-0.0062,-0.0061,-0.0075,-0.0067,-0.0083,-0.0092,-0.0054,-0.0038,-0.0036,-0.0006,0.0003,0.0055,0.007,-0.0095,-0.0094,-0.0094,-0.0093,0,0,-0.0026,-0.0011,-0.0014,0.0006,-0.0016,-0.0015,-0.004,-0.0044,-0.0033,-0.0058,-0.003,-0.0068,-0.006,-0.006,-0.0073,-0.002,0.0048,-0.0002,0.0002,0.0052,0.0193,0.0139,0.015,0.0064,0.0067,0.0069,0.02,0,-0.0044,-0.0036,-0.0033,-0.0026,-0.0015,-0.0019,-0.0025,-0.003,-0.0035,-0.002,-0.0028,-0.0025,-0.006,-0.0054,-0.0015,0.0041,0.009,0.0013,0.0176,0.0181,0.0135,0.0167,0.0135,0.0244,0.0215,0.0217,0.0219,0,-0.0067,-0.0043,-0.0033,0.0023,0.0025,0.0009,0.0041,0.0029,0.0028,0.0031,0.0028,0.0025,0.0059,0.0037,0.0146,0.0101,0.0148,0.0192,0.0198,0.0184,0.0156,0.0235,0.0273,0.0245,0.0243,0.0241,0.0239,0,-0.0046,-0.0031,-0.0001,0.0007,0.0033,0.0039,0.004,0.004,0.0058,0.0055,0.0095,0.0102,0.0154,0.0196,0.0259,0.0217,0.0412,0.036,0.0354,0.035,0.0376,0.037,0.0459,0.0458,0.0458,0.0458,0.0457,0,-0.0034,-0.0008,0.0006,0.0024,0.0055,0.0063,0.0082,0.008,0.0098,0.0167,0.0119,0.0218,0.0212,0.0306,0.0315,0.0394,0.0455,0.0381,0.0391,0.0354,0.0344,0.0389,0.0379,0.0463,0.0462,0.0461,0.046,0,-0.0011,-0.0002,0.0032,0.0059,0.0062,0.0075,0.0095,0.0127,0.0139,0.0231,0.0243,0.0338,0.0469,0.0459,0.0574,0.0499,0.055,0.0565,0.0506,0.0505,0.0424,0.041,0.0548,0.0548,0.0547,0.0547,0.0546,0,0.0012,0.0027,0.0047,0.0057,0.0058,0.0074,0.0099,0.0118,0.0179,0.0352,0.0439,0.0571,0.0719,0.0806,0.0701,0.067,0.0662,0.0573,0.046,0.0443,0.0439,0.0426,0.0413,0.048,0.048,0.0479,0.0478,0,0.0048,0.0036,0.0059,0.0079,0.0095,0.0149,0.0202,0.0271,0.0369,0.0526,0.081,0.0944,0.0969,0.0942,0.0792,0.0742,0.0546,0.0553,0.0621,0.0432,0.0381,0.0375,0.0366,0.0472,0.0473,0.0473,0.0473,0.0474,0.0062,0.0068,0.0082,0.0104,0.0154,0.027,0.0368,0.0504,0.0711,0.0974,0.1068,0.124,0.1079,0.0902,0.0783,0.0569,0.0582,0.0461,0.0464,0.0467,0.0405,0.0353,0.0428,0.0428,0.0428,0.0429,0.0429,0,0.0082,0.0084,0.0114,0.0193,0.0326,0.032,0.0488,0.0647,0.0988,0.1128,0.1364,0.1217,0.113,0.0935,0.0614,0.0436,0.041,0.0368,0.0369,0.0376,0.0382,0.0315,0.0315,0.0314,0.0314,0.0313,0,0,0.0092,0.0111,0.0127,0.0336,0.0441,0.0636,0.0772,0.1009,0.1135,0.1364,0.1397,0.1393,0.1145,0.0881,0.0661,0.0491,0.0468,0.0445,0.0549,0.0582,0.059,0.0442,0.0348,0,0,0,0,0]}],[{"header":{"parameterUnit":"m.s-1","parameterCategory":2,"la1":30.2991,"la2":30.254,"lo1":-89.0895,"lo2":-89.0444,"dy":0.0017,"dx":0.0017,"nx":28,"ny":28,"refTime":"2023-08-04T09:00:00:Z","depth":"4","parameterNumber":2,"parameterNumberName":"U-component_of_CURRENTS"},"data":[0,0,0,0,0,0,0,0,0,0,0,0,0,0,0,0,0,0,0,0,0,0,0,0,0,0,0,0,0,0,0,0,0,0,0,0,0,0,0,0,0,0,0,0,0,0,0,0,0,0,0,0,0,0,0,0,0,0,0.0737,0.0738,0,0.0737,0.0737,0.0737,0.0793,0.0795,0.0796,0.0798,0.0835,0.0834,0.0833,0,0,0,0,0,0,0,0,0,0,0,0,0,0.0709,0.0709,0.0737,0.0738,0.0738,0.0737,0.0737,0.0737,0.0792,0.0795,0.0797,0.0799,0.0835,0.0834,0.0833,0,0,0,0,0,0,0,0,0,0,0,0,0,0.0712,0.0709,0.0737,0.0769,0.0773,0.0738,0.0737,0.0736,0.0792,0.0795,0.0798,0.08,0.0835,0.0834,0.0833,0.0769,0,0,0.0829,0.0829,0,0,0,0,0,0,0,0,0.0712,0.0713,0.0764,0.0767,0.0771,0.0772,0.0741,0.0751,0.0791,0.078,0.0798,0.0802,0.0818,0.0818,0.0805,0.0771,0.0772,0.0829,0.0829,0.0828,0.0828,0,0,0,0,0,0,0,0.0712,0.0712,0.0733,0.0764,0.0768,0.0758,0.0762,0.0742,0.078,0.0781,0.0786,0.0792,0.082,0.0806,0.0807,0.0773,0.0829,0.0828,0.0828,0.0827,0.0805,0.0806,0,0,0,0,0,0,0.0722,0.0712,0.0733,0.0733,0.0753,0.0757,0.0761,0.0765,0.078,0.0786,0.079,0.0795,0.0807,0.0808,0.0808,0.0825,0.0828,0.0827,0.0826,0.0805,0.0805,0.0806,0,0,0,0,0,0,0.0721,0.0723,0.0733,0.0727,0.0728,0.0755,0.0759,0.0764,0.0776,0.0787,0.0794,0.0803,0.0809,0.081,0.0828,0.0824,0.0826,0.0825,0.0805,0.0805,0.0806,0.08,0,0,0,0,0,0,0.072,0.0723,0.0732,0.0727,0.0729,0.0722,0.0757,0.0762,0.0777,0.0784,0.0799,0.0804,0.0811,0.083,0.0827,0.0822,0.0824,0.0805,0.0805,0.0805,0.08,0.08,0.08,0,0,0,0,0,0.0719,0.0714,0.0732,0.0735,0.0739,0.0721,0.072,0.0746,0.0775,0.0769,0.0802,0.0805,0.083,0.0829,0.0825,0.082,0.0805,0.0805,0.0805,0.08,0.08,0.08,0,0,0,0,0,0,0.0699,0.072,0.0739,0.0741,0.0739,0.0733,0.0735,0.0748,0.0763,0.0781,0.0801,0.0807,0.0817,0.0819,0.0818,0.0817,0.0818,0.0818,0.0815,0.0815,0.0815,0.083,0.0823,0,0,0,0,0,0.0699,0.0711,0.0717,0.072,0.0721,0.0729,0.0729,0.074,0.0752,0.0763,0.0789,0.0808,0.0805,0.0816,0.0814,0.0808,0.084,0.0805,0.0805,0.0805,0.0816,0.0886,0.0894,0.0807,0.0807,0.0807,0,0,0.0686,0.0707,0.0709,0.0718,0.0722,0.0693,0.0736,0.0732,0.0726,0.0761,0.0784,0.0803,0.0803,0.0805,0.081,0.0815,0.0841,0.0805,0.0805,0.0816,0.0887,0.0896,0.0904,0.0807,0.0807,0.0807,0,0,0.0637,0.069,0.0662,0.0665,0.0675,0.0682,0.0684,0.0695,0.0728,0.074,0.0765,0.0798,0.0801,0.081,0.0808,0.0804,0.0833,0.0799,0.0816,0.0883,0.0892,0.09,0.0929,0.094,0.0806,0.0806,0.0806,0,0.0614,0.0596,0.0648,0.0618,0.0624,0.0675,0.0634,0.0656,0.0681,0.0728,0.0755,0.0796,0.0802,0.0801,0.0812,0.0803,0.0844,0.0814,0.0886,0.0894,0.0902,0.0931,0.0943,0.0806,0.0806,0.0806,0.0806,0,0.0526,0.0523,0.0512,0.0503,0.0515,0.0497,0.0538,0.0582,0.0647,0.0689,0.0747,0.0768,0.0817,0.0802,0.0808,0.0852,0.0861,0.0873,0.0888,0.0911,0.0939,0.0951,0.0805,0.0805,0.0805,0.0806,0,0,0.0443,0.0442,0.044,0.0447,0.0462,0.0473,0.0493,0.0543,0.0605,0.0658,0.0721,0.074,0.0816,0.0819,0.083,0.0876,0.0958,0.091,0.0913,0.0943,0.1099,0.0974,0.0976,0.1,0.1003,0.1005,0.1087,0,0.0353,0.0293,0.0315,0.029,0.028,0.0363,0.0395,0.0471,0.0562,0.0648,0.0712,0.077,0.08,0.0838,0.0894,0.0936,0.0996,0.0934,0.1069,0.1072,0.0964,0.0988,0.1013,0.1096,0.1099,0.1101,0.1103,0,0.0252,0.0247,0.019,0.0254,0.0259,0.0266,0.0398,0.0431,0.0566,0.0658,0.0751,0.0801,0.087,0.0895,0.1021,0.0991,0.1064,0.1092,0.1097,0.0996,0.0972,0.1075,0.1126,0.1124,0.1122,0.112,0.1119,0,0.0207,0.0177,0.0153,0.016,0.0214,0.026,0.032,0.0455,0.053,0.0678,0.0757,0.0847,0.093,0.1006,0.1083,0.1083,0.1202,0.121,0.116,0.1151,0.1243,0.1234,0.1326,0.1326,0.1326,0.1325,0.1325,0,0.0125,0.0117,0.0149,0.0148,0.0187,0.0257,0.0339,0.0441,0.0569,0.0668,0.078,0.0849,0.0981,0.1048,0.1095,0.1152,0.1237,0.1166,0.1171,0.1232,0.1222,0.125,0.124,0.1328,0.1328,0.1327,0.1327,0,0.0077,0.0073,0.0071,0.0132,0.0162,0.0214,0.0336,0.0413,0.0564,0.0682,0.073,0.0901,0.1018,0.1078,0.1204,0.1188,0.1217,0.1225,0.1257,0.1261,0.1119,0.1108,0.118,0.1177,0.1174,0.1171,0.1169,0,0.0032,0.0023,0.0065,0.0079,0.0108,0.0191,0.0257,0.0408,0.0484,0.0697,0.0739,0.0898,0.0998,0.1078,0.1143,0.1191,0.1198,0.1191,0.1178,0.111,0.1109,0.1102,0.1095,0.1164,0.1163,0.1163,0.1162,0,-0.0026,-0.0003,0.0006,0.0029,0.0083,0.0138,0.024,0.0294,0.0484,0.0601,0.077,0.0845,0.0977,0.1053,0.1101,0.1126,0.1161,0.116,0.1167,0.1156,0.1092,0.1092,0.1088,0.1151,0.1153,0.1154,0.1155,0,-0.0056,-0.0056,-0.0043,-0.0016,0.0022,0.0079,0.0149,0.0271,0.0373,0.0618,0.066,0.0844,0.0985,0.102,0.1037,0.1059,0.107,0.1032,0.1047,0.1059,0.0973,0.0872,0.0876,0,0,0,0,0,-0.0081,-0.0083,-0.0083,-0.006,-0.003,0.0009,0.0127,0.0209,0.0377,0.0489,0.059,0.0708,0.0828,0.0892,0.09,0.0938,0.1026,0.0933,0.0979,0.1094,0.1106,0.1012,0,0,0,0,0,0,-0.0103,-0.0103,-0.0104,-0.0116,-0.0097,-0.0045,0.0037,0.0164,0.0234,0.0417,0.0495,0.0623,0.0742,0.0826,0.0876,0.0889,0.0893,0.1027,0.1024,0.1087,0.1098,0.1108,0.1015,0,0,0,0,0]},{"header":{"parameterUnit":"m.s-1","parameterCategory":2,"la1":30.2991,"la2":30.254,"lo1":-89.0895,"lo2":-89.0444,"dy":0.0017,"dx":0.0017,"nx":28,"ny":28,"refTime":"2023-08-04T09:00:00:Z","depth":"4","parameterNumber":3,"parameterNumberName":"V-component_of_CURRENTS"},"data":[0,0,0,0,0,0,0,0,0,0,0,0,0,0,0,0,0,0,0,0,0,0,0,0,0,0,0,0,0,0,0,0,0,0,0,0,0,0,0,0,0,0,0,0,0,0,0,0,0,0,0,0,0,0,0,0,0,0,-0.0037,-0.0037,0,-0.0062,-0.0062,-0.0062,-0.0065,-0.0064,-0.0064,-0.0064,-0.0075,-0.0076,-0.0076,0,0,0,0,0,0,0,0,0,0,0,0,0,-0.0017,-0.0017,-0.0037,-0.0037,-0.0038,-0.0062,-0.0062,-0.0062,-0.0065,-0.0064,-0.0064,-0.0064,-0.0075,-0.0076,-0.0076,0,0,0,0,0,0,0,0,0,0,0,0,0,-0.0031,-0.0017,-0.0037,-0.0042,-0.0043,-0.0062,-0.0062,-0.0062,-0.0065,-0.0064,-0.0064,-0.0064,-0.0075,-0.0076,-0.0076,-0.0086,0,0,-0.0078,-0.0079,0,0,0,0,0,0,0,0,-0.003,-0.0032,-0.0041,-0.0042,-0.0043,-0.0061,-0.0059,-0.007,-0.0065,-0.0055,-0.0064,-0.0064,-0.007,-0.0071,-0.0075,-0.0086,-0.0087,-0.0078,-0.0079,-0.0079,-0.0079,0,0,0,0,0,0,0,-0.0029,-0.0031,-0.0046,-0.0042,-0.0043,-0.0053,-0.0054,-0.0061,-0.0063,-0.0056,-0.0057,-0.0061,-0.007,-0.0074,-0.0075,-0.0087,-0.0078,-0.0079,-0.0079,-0.008,-0.0088,-0.0087,0,0,0,0,0,0,-0.0027,-0.003,-0.0045,-0.0047,-0.0037,-0.0053,-0.0055,-0.0054,-0.0063,-0.0065,-0.0061,-0.0061,-0.0073,-0.0075,-0.0076,-0.0043,-0.0079,-0.008,-0.008,-0.0088,-0.0088,-0.0087,0,0,0,0,0,0,-0.0026,-0.0028,-0.0044,-0.004,-0.0043,-0.0054,-0.0054,-0.0055,-0.006,-0.0067,-0.0068,-0.0064,-0.0073,-0.0075,-0.008,-0.0046,-0.008,-0.0081,-0.0088,-0.0088,-0.0087,-0.0007,0,0,0,0,0,0,-0.0026,-0.0027,-0.0027,-0.0039,-0.0043,-0.0039,-0.0054,-0.0056,-0.0063,-0.0063,-0.007,-0.0071,-0.0073,-0.0079,-0.0081,-0.0047,-0.0081,-0.0088,-0.0088,-0.0088,-0.001,-0.0004,0.0001,0,0,0,0,0,-0.0025,-0.001,-0.0027,-0.0029,-0.0042,-0.0038,-0.004,-0.0047,-0.0064,-0.0053,-0.0069,-0.0071,-0.0077,-0.008,-0.0082,-0.0047,-0.0089,-0.0088,-0.0088,-0.0013,-0.0005,0.0001,0,0,0,0,0,0,0.0003,-0.001,-0.0028,-0.0018,-0.0027,-0.0038,-0.003,-0.0049,-0.0055,-0.0057,-0.0073,-0.0074,-0.0063,-0.0079,-0.0081,-0.0052,-0.0081,-0.0081,-0.0024,-0.0017,-0.0012,0.0008,-0.0082,0,0,0,0,0,0.0005,0.0009,-0.0006,-0.0002,-0.0001,-0.0023,-0.0026,-0.0034,-0.0043,-0.0046,-0.0055,-0.0065,-0.0064,-0.006,-0.0065,-0.0054,-0.0084,-0.0035,-0.0029,-0.0024,-0.0012,-0.006,-0.0058,-0.0086,-0.0086,-0.0086,0,0,0.0019,0.0007,0.0013,0.0003,-0.0004,0.0026,-0.0022,-0.0018,0.0006,-0.0046,-0.002,-0.0049,-0.0061,-0.0041,-0.0037,-0.0046,-0.0029,-0.0023,-0.0019,-0.0009,-0.0059,-0.0057,-0.0054,-0.0085,-0.0086,-0.0086,0,0,0.0066,0.0038,0.0069,0.0071,0.0061,0.0051,0.0052,0.0039,0.0035,0.0039,0.0014,-0.0002,-0.0002,0.0001,0.0001,0.0027,-0.0003,0.0026,0.0081,0.0035,0.0037,0.0038,0.0022,0.0022,0.0036,0.0036,0.0036,0,0.0088,0.0111,0.0078,0.0114,0.0124,0.0071,0.0115,0.011,0.0094,0.0086,0.0062,0.0032,0.0024,0.0044,0.0064,0.0045,0.0015,0.0063,0.0043,0.0044,0.0044,0.0027,0.0025,0.004,0.004,0.0039,0.0039,0,0.0166,0.0184,0.0203,0.023,0.024,0.0259,0.0251,0.0246,0.0214,0.0195,0.0178,0.014,0.0123,0.012,0.011,0.0115,0.0093,0.0051,0.0031,0.0052,0.0032,0.0029,0.0046,0.0044,0.0043,0.0042,0,0,0.0217,0.0253,0.0263,0.0276,0.0296,0.0304,0.0347,0.0349,0.0353,0.0315,0.0301,0.03,0.0241,0.0236,0.02,0.0168,0.0156,0.0122,0.0118,0.0117,0.007,0.0076,0.0073,0.0102,0.0102,0.0101,0.0063,0,0.0285,0.0363,0.0372,0.0436,0.0462,0.0441,0.0481,0.0473,0.0443,0.0414,0.0345,0.0328,0.0298,0.0277,0.0242,0.0162,0.0148,0.0172,0.0041,0.0038,0.0049,0.0069,0.01,0.006,0.006,0.0059,0.0059,0,0.0356,0.0389,0.0477,0.0499,0.0513,0.0562,0.0571,0.06,0.0561,0.0534,0.0489,0.041,0.0371,0.0318,0.0224,0.0235,0.0178,0.0114,0.011,0.0086,0.0038,0.0028,0.0052,0.0053,0.0053,0.0053,0.0054,0,0.0373,0.0448,0.0509,0.0528,0.0571,0.0609,0.0636,0.0638,0.0647,0.061,0.0581,0.05,0.0455,0.0352,0.0238,0.0225,0.0108,0.0066,0.0026,0.0026,-0.0004,-0.0005,0.001,0.001,0.001,0.0011,0.0011,0,0.0417,0.0459,0.0526,0.0557,0.0616,0.0647,0.0702,0.0715,0.0719,0.0716,0.0647,0.0595,0.0457,0.0355,0.0249,0.0137,0.0124,0.0049,0.0015,0.0033,0.0036,-0.0005,-0.0006,0.0009,0.0009,0.001,0.001,0,0.0422,0.0473,0.0528,0.0598,0.0627,0.0675,0.0754,0.0786,0.0801,0.0789,0.0776,0.0674,0.0555,0.0419,0.0254,0.0175,0.0049,0.002,0.0081,0.0048,-0.0003,0.0001,-0.0035,-0.0036,-0.0036,-0.0036,-0.0036,0,0.0431,0.0466,0.0552,0.06,0.0646,0.0723,0.0779,0.0828,0.0846,0.0817,0.0787,0.0693,0.0605,0.0391,0.0252,0.0079,0.0053,0.0011,-0.0015,0.0022,-0.0008,-0.0005,-0.0002,-0.0036,-0.0036,-0.0036,-0.0036,0,0.0428,0.0467,0.0509,0.0612,0.0692,0.0765,0.0837,0.0848,0.0881,0.0879,0.0795,0.0679,0.0552,0.038,0.0277,0.0134,0.0037,0.0008,0.0007,-0.0017,0.002,-0.0008,-0.0005,-0.0036,-0.0036,-0.0036,-0.0036,0,0.0416,0.0439,0.0511,0.0599,0.0698,0.0782,0.0826,0.0847,0.0866,0.0829,0.0788,0.066,0.0588,0.0407,0.0278,0.0176,0.0134,0.0091,0.0084,0.0083,0.0123,0.0188,0.0166,0,0,0,0,0,0.0404,0.0429,0.0499,0.0601,0.071,0.078,0.0843,0.0876,0.0879,0.0832,0.082,0.0695,0.0517,0.0416,0.0315,0.0265,0.0115,0.0141,0.0063,-0.0039,-0.0038,-0.0012,0,0,0,0,0,0,0.039,0.0445,0.0473,0.0589,0.0674,0.0797,0.0847,0.0869,0.0824,0.0806,0.0704,0.0668,0.0485,0.0584,0.0313,0.0279,0.0213,0.0059,0.0057,-0.0039,-0.0038,-0.0038,-0.0011,0,0,0,0,0]}]]